Language selection

My Weather Profile Weather Topics  | 

Pacific - North Coast: Past 24 Hour Conditions

 

Langara Island

05:00 PM PST 26 January 2023
Disclaimer

This table is a summary of hourly weather conditions for the past 24 hours.
Please note that these observations might not always be representative of weather conditions over their associated marine area.

Date / Time
(PST)
Wind(knots) Conditions Visibility(km) Pressure(kPa) Air tempC) Relative humidity(%) Dew pointC)
26 January 2023
17:00 WNW 17 N/A N/A 103.0 6 99 6
16:00 WNW 11 N/A N/A 103.0 7 99 7
15:00 WNW 11 N/A N/A 103.0 7 99 7
14:00 WSW 9 N/A N/A 103.0 7 99 7
13:00 SW 8 N/A N/A 103.0 7 99 7
12:00 SW 8 N/A N/A 103.0 7 99 7
11:00 SSW 6 N/A N/A 103.0 7 99 7
10:00 SSW 9 gust 16 N/A N/A 103.1 7 99 7
9:00 SSW 10 gust 16 N/A N/A 103.1 7 99 7
8:00 SSW 12 N/A N/A 103.1 7 99 7
7:00 SSW 13 gust 18 N/A N/A 103.2 7 99 7
6:00 SSW 13 gust 19 N/A N/A 103.2 7 99 7
5:00 SSW 13 gust 21 N/A N/A 103.3 7 99 7
4:00 SW 13 gust 19 N/A N/A 103.3 7 99 7
3:00 SSW 15 gust 21 N/A N/A 103.2 7 99 7
2:00 SW 14 gust 21 N/A N/A 103.3 7 99 7
1:00 SSW 13 gust 20 N/A N/A 103.3 7 98 7
0:00 SSW 11 gust 20 N/A N/A 103.3 7 98 7
25 January 2023
23:00 SSW 11 gust 17 N/A N/A 103.3 7 98 7
22:00 SW 11 gust 22 N/A N/A 103.3 7 98 7
21:00 SSW 13 gust 23 N/A N/A 103.3 7 98 7
20:00 SSW 16 gust 24 N/A N/A 103.3 7 98 7
19:00 SSW 16 gust 24 N/A N/A 103.2 8 98 7
18:00 SSW 16 gust 27 N/A N/A 103.2 8 98 7
17:00 SSW 19 gust 26 N/A N/A 103.2 8 98 7

Zoom-in to make a selection

Map of Pacific - North Coast marine weather areas Middle Nomad - 46004 South Nomad - 46036 Dixon Entrance Central - 46145 South Moresby - 46147 Nanakwa Shoal - 46181 North Hecate Strait - 46183 North Nomad - 46184 South Hecate Strait - 46185 West Sea Otter - 46204 West Dixon Entrance - 46205 East Dellwood - 46207 West Moresby - 46208 Sartine Island Cape St.James Kindakun Rocks Langara Island Masset Municipal Airport Rose Spit Sandspit Airport Bella Bella Airport Bella Coola Airport Bonilla Island Cathedral Point Cumshewa Island Grey Islet Holland Rock Lucy Islands Lightstation Prince Rupert Airport
Legend:
buoy Buoy
land station Land Station

Pacific - North Coast Area

Another Region

What we are doing

Date modified: